Location: Castelnau
(43.6639°N, 0.8431°W)
Time: 16:19:13
(UTC+00:00)

SJ-12 - Pass Details

Date: 13 January 2026
Orbit: 515 x 525 km, 97.8° (Epoch: 11 February)

Event Time Altitude Azimuth Distance (km) Brightness Sun altitude
Rises 06:59:51 0° 9° (N) 2,672 7.2 -6.5°
Reaches altitude 10° 07:01:59 10° 6° (N) 1,777 6.2 -6.1°
Maximum altitude 07:05:46 60° 286° (WNW) 604 3.8 -5.5°
Drops below altitude 10° 07:09:30 10° 206° (SSW) 1,756 6.4 -4.9°
Sets 07:11:36 0° 203° (SSW) 2,637 7.3 -4.6°
